Location: Bottenau
(48.5138°N, 8.0462°E)
Time: 20:35:48
(UTC+00:00)

COSMOS 2455 - Pass Details

Date: 18 April 2021
Orbit: 902 x 907 km, 67.1° (Epoch: 18 May)

Event Time Altitude Azimuth Distance (km) Brightness Sun altitude
Exits shadow 23:01:18 24° 265° (W) 1,777 4.3 -30.0°
Maximum altitude 23:04:16 39° 317° (NW) 1,334 4.0 -30.1°
Drops below altitude 10° 23:09:53 10° 26° (NNE) 2,600 5.9 -30.2°
Sets 23:12:36 0° 34° (NE) 3,545 6.7 -30.2°
